Regional Weather Roundup
Issued by NWS Kansas City/Pleasant Hill, MO

Home | Current Version | Previous Version | Text Only | Print | Product List | Glossary On
Versions: 1 2 3 4 5 6 7 8 9 10 11 12 13 14 15 16 17 18 19 20 21 22 23 24 25 26 27 28 29 30 31 32 33 34 35 36 37 38 39 40 41 42 43 44 45 46 47 48 49 50
000
ASUS43 KEAX 121210
RWREAX

WEATHER ROUNDUP FOR EASTERN KANSAS AND NORTHWEST MISSOURI
NATIONAL WEATHER SERVICE KANSAS CITY/PLEASANT HILL MO
600 AM CST FRI FEB 12 2016

KSZ040-057-103>105-MOZ028-029-037-043-121300-
...KANSAS CITY METROPOLITAN AREA...

CITY           SKY/WX    TMP DP  RH WIND       PRES   REMARKS
K.C. INTL      PTCLDY    26  20  77 NW8       30.27R WCI  18
6HR MIN TEMP:  24; 6HR MAX TEMP:  30;

K.C. DOWNTOWN  PTCLDY    29  20  69 NW3       30.28R
6HR MIN TEMP:  28; 6HR MAX TEMP:  32;

LEES SUMMIT    CLEAR     26  20  77 NW3       30.26R
6HR MIN TEMP:  26; 6HR MAX TEMP:  30;

OLATHE - IXD   PTCLDY    26  22  84 NW8       30.27R WCI  18
6HR MIN TEMP:  26; 6HR MAX TEMP:  30;

OLATHE - OJC   PTCLDY    29  21  72 N8        30.26R WCI  21
6HR MIN TEMP:  28; 6HR MAX TEMP:  31;

LAWRENCE       MOCLDY    24  21  88 NW7       30.30R WCI  16

$$

MOZ001>008-011>017-020>025-030>033-038>040-044>046-053-054-121300-
...NORTHERN AND CENTRAL MISSOURI...

CITY           SKY/WX    TMP DP  RH WIND       PRES   REMARKS
ST. JOSEPH     CLOUDY    28  21  75 N7        30.30R WCI  21
6HR MIN TEMP:  26; 6HR MAX TEMP:  31;

MOSBY          SUNNY     27  19  74 CALM      30.27R
WARRENSBURG    PTCLDY    28  23  80 NW3       30.26R
WHITEMAN AFB   CLOUDY    27  24  87 NW5       30.24R WCI  22
6HR MIN TEMP:  27; 6HR MAX TEMP:  29;

CLINTON          N/A     32  28  86 N5        30.25R WCI  27
SEDALIA        CLOUDY    29  24  82 N3        30.25R
6HR MIN TEMP:  28; 6HR MAX TEMP:  30;

WARSAW         NOT AVBL
CHILLICOTHE      N/A     26  19  74 N3        30.28R
6HR MIN TEMP:  26; 6HR MAX TEMP:  27;

KIRKSVILLE     CLOUDY    22  16  78 NW5       30.24R WCI  16
6HR MIN TEMP:  21; 6HR MAX TEMP:  22; 6HR PCP: TRACE;


$$

MOZ041-047>049-056>058-063>065-088>090-097-121300-
...EASTERN AND SOUTHERN MISSOURI...

CITY           SKY/WX    TMP DP  RH WIND       PRES   REMARKS
ST. LOUIS INTL FLURRIES  27  21  80 CALM      30.23R
6HR MIN TEMP:  25; 6HR MAX TEMP:  29; 6HR PCP:  0.03;

SPIRIT OF STL  CLOUDY    26  22  84 CALM      30.23R
COLUMBIA       CLOUDY    25  22  88 N6        30.22R WCI  18
JEFFERSON CITY CLOUDY    27  22  81 N3        30.24R
ROLLA          CLOUDY    27  23  85 N5        30.17R WCI  22
OSAGE BEACH    CLOUDY    28  19  69 CALM      30.21R
SPRINGFIELD    CLEAR     29  20  69 NW3       30.18R
BRANSON        CLEAR     30  23  74 CALM      30.19R
JOPLIN         CLOUDY    27  23  85 CALM      30.24R
WEST PLAINS    CLEAR     23  17  78 N6        30.18R WCI  16

$$

IAZ060-094-KSZ022-034>040-054-083-096-NEZ052-066-093-121300-
...KANSAS...SOUTHEAST NEBRASKA AND IOWA...

CITY           SKY/WX    TMP DP  RH WIND       PRES   REMARKS
TOPEKA         MOCLDY    28  22  78 NW6       30.31R WCI  22
6HR MIN TEMP:  27; 6HR MAX TEMP:  30;

MANHATTAN      CLOUDY    30  26  85 N8        30.32R WCI  22
EMPORIA        CLOUDY    25  22  88 W7        30.28R WCI  17
CHANUTE        CLOUDY    30  24  78 NW8       30.25R WCI  22
WICHITA        PTCLDY    36  28  73 N14       30.28R WCI  27
OMAHA          CLOUDY    20  17  88 N15       30.35R WCI   6
LINCOLN        CLOUDY    26  21  81 N16       30.37R WCI  14
FALLS CITY     CLOUDY    30  24  78 N10       30.31R WCI  21
LAMONI         CLOUDY    23  19  85 NW10      30.25R WCI  12
DES MOINES     FLURRIES  20  13  74 N16       30.29R WCI   6

$$




USA.gov is the U.S. government's official web portal to all federal, state and local government web resources and services.